| time (UTC) | temp F | wind direction | speed MPH | gust MPH | rain 1hr in | rain 24hr in | rain mn in | humidity % | barometer mb |
| 20260505080030 | 69 | 277 | 0.0 | 3.0 | 0.00 | 0.00 | 0.00 | 44 | 1004.8 |
| 20260505075527 | 69 | 174 | 1.0 | 5.0 | 0.00 | 0.00 | 0.00 | 44 | 1004.8 |
| 20260505075028 | 69 | 250 | 2.0 | 5.0 | 0.00 | 0.00 | 0.00 | 43 | 1004.7 |
| 20260505074527 | 69 | 229 | 0.0 | 7.0 | 0.00 | 0.00 | 0.00 | 44 | 1004.8 |
| 20260505074025 | 69 | 261 | 1.0 | 7.0 | 0.00 | 0.00 | 0.00 | 44 | 1004.8 |
| 20260505073524 | 69 | 139 | 2.0 | 6.0 | 0.00 | 0.00 | 0.00 | 43 | 1004.6 |
| 20260505073023 | 69 | 130 | 1.0 | 3.0 | 0.00 | 0.00 | 0.00 | 43 | 1004.6 |
| 20260505072523 | 69 | 228 | 0.0 | 3.0 | 0.00 | 0.00 | 0.00 | 44 | 1004.5 |
| 20260505072022 | 69 | 229 | 1.0 | 4.0 | 0.00 | 0.00 | 0.00 | 43 | 1004.5 |
| 20260505071525 | 68 | 203 | 2.0 | 4.0 | 0.00 | 0.00 | 0.00 | 44 | 1004.4 |
| 20260505071022 | 69 | 276 | 0.0 | 4.0 | 0.00 | 0.00 | 0.00 | 43 | 1004.5 |
| 20260505070524 | 69 | 311 | 1.0 | 4.0 | 0.00 | 0.00 | 0.00 | 44 | 1004.5 |
| 20260505070020 | 69 | 153 | 0.0 | 2.0 | 0.00 | 0.00 | 0.00 | 43 | 1004.4 |
| 20260505065519 | 69 | 261 | 0.0 | 2.0 | 0.00 | 0.00 | 0.00 | 44 | 1004.4 |
| 20260505065019 | 70 | 221 | 0.0 | 2.0 | 0.00 | 0.00 | 0.00 | 45 | 1004.4 |
| 20260505064529 | 70 | 255 | 0.0 | 3.0 | 0.00 | 0.00 | 0.00 | 43 | 1004.4 |
| 20260505064019 | 70 | 232 | 0.0 | 3.0 | 0.00 | 0.00 | 0.00 | 43 | 1004.4 |
| 20260505063519 | 70 | 208 | 0.0 | 2.0 | 0.00 | 0.00 | 0.00 | 42 | 1004.4 |
| 20260505063019 | 71 | 278 | 0.0 | 2.0 | 0.00 | 0.00 | 0.00 | 40 | 1004.4 |
| 20260505062518 | 71 | 53 | 0.0 | 2.0 | 0.00 | 0.00 | 0.00 | 40 | 1004.5 |
| 20260505062018 | 71 | 112 | 1.0 | 2.0 | 0.00 | 0.00 | 0.00 | 41 | 1004.4 |
| 20260505061517 | 71 | 60 | 0.0 | 2.0 | 0.00 | 0.00 | 0.00 | 40 | 1004.3 |
| 20260505061018 | 71 | 49 | 0.0 | 2.0 | 0.00 | 0.00 | 0.00 | 39 | 1004.3 |
| 20260505060517 | 72 | 48 | 0.0 | 3.0 | 0.00 | 0.00 | 0.00 | 39 | 1004.3 |
| 20260505060019 | 72 | 288 | 0.0 | 5.0 | 0.00 | 0.00 | 0.00 | 38 | 1004.3 |
| 20260505055617 | 72 | 322 | 1.0 | 5.0 | 0.00 | 0.00 | 0.00 | 38 | 1004.2 |
| 20260505055017 | 73 | 262 | 1.0 | 6.0 | 0.00 | 0.00 | 0.00 | 37 | 1004.2 |
| 20260505054532 | 73 | 292 | 1.0 | 9.0 | 0.00 | 0.00 | 0.00 | 37 | 1004.2 |
| 20260505054016 | 73 | 340 | 4.0 | 9.0 | 0.00 | 0.00 | 0.00 | 37 | 1004.1 |
| 20260505053518 | 73 | 336 | 4.0 | 10.0 | 0.00 | 0.00 | 0.00 | 36 | 1004.1 |
| 20260505053016 | 74 | 297 | 6.0 | 13.0 | 0.00 | 0.00 | 0.00 | 36 | 1004.0 |
| 20260505052516 | 74 | 337 | 6.0 | 13.0 | 0.00 | 0.00 | 0.00 | 36 | 1004.0 |
| 20260505052015 | 74 | 313 | 5.0 | 14.0 | 0.00 | 0.00 | 0.00 | 35 | 1004.0 |
| 20260505051515 | 74 | 303 | 6.0 | 12.0 | 0.00 | 0.00 | 0.00 | 35 | 1004.0 |
| 20260505051015 | 74 | 324 | 4.0 | 11.0 | 0.00 | 0.00 | 0.00 | 36 | 1003.9 |
| 20260505050517 | 74 | 302 | 5.0 | 11.0 | 0.00 | 0.00 | 0.00 | 35 | 1003.9 |
| 20260505041512 | 76 | 310 | 5.0 | 11.0 | 0.00 | 0.00 | 0.00 | 33 | 1003.4 |
| 20260505041012 | 76 | 299 | 5.0 | 11.0 | 0.00 | 0.00 | 0.00 | 32 | 1003.3 |
| 20260505040512 | 76 | 286 | 5.0 | 12.0 | 0.00 | 0.00 | 0.00 | 32 | 1003.3 |
| 20260505040013 | 77 | 346 | 5.0 | 12.0 | 0.00 | 0.00 | 0.00 | 32 | 1003.2 |
| 20260505035513 | 77 | 311 | 6.0 | 12.0 | 0.00 | 0.00 | 0.00 | 32 | 1003.2 |
| 20260505035012 | 77 | 311 | 6.0 | 11.0 | 0.00 | 0.00 | 0.00 | 31 | 1003.0 |
| 20260505034617 | 77 | 322 | 4.0 | 10.0 | 0.00 | 0.00 | 0.00 | 31 | 1003.0 |
| 20260505034011 | 77 | 354 | 5.0 | 10.0 | 0.00 | 0.00 | 0.00 | 32 | 1002.8 |
| 20260505033511 | 77 | 324 | 4.0 | 8.0 | 0.00 | 0.00 | 0.00 | 31 | 1002.7 |
| 20260505033011 | 78 | 330 | 3.0 | 7.0 | 0.00 | 0.00 | 0.00 | 31 | 1002.7 |
| 20260505032511 | 78 | 353 | 2.0 | 8.0 | 0.00 | 0.00 | 0.00 | 31 | 1002.7 |
| 20260505032010 | 78 | 341 | 3.0 | 5.0 | 0.00 | 0.00 | 0.00 | 31 | 1002.7 |
| 20260505031511 | 79 | 343 | 4.0 | 6.0 | 0.00 | 0.00 | 0.00 | 30 | 1002.5 |
| 20260505031011 | 79 | 322 | 3.0 | 7.0 | 0.00 | 0.00 | 0.00 | 30 | 1002.5 |
| 20260505030512 | 79 | 324 | 2.0 | 7.0 | 0.00 | 0.00 | 0.00 | 30 | 1002.5 |
| 20260505030029 | 80 | 312 | 3.0 | 8.0 | 0.00 | 0.00 | 0.00 | 29 | 1002.4 |
| 20260505025513 | 80 | 310 | 4.0 | 7.0 | 0.00 | 0.00 | 0.00 | 29 | 1002.4 |
| 20260505025009 | 80 | 325 | 3.0 | 8.0 | 0.00 | 0.00 | 0.00 | 28 | 1002.3 |
| 20260505024515 | 81 | 280 | 4.0 | 8.0 | 0.00 | 0.00 | 0.00 | 28 | 1002.3 |
| 20260505024009 | 82 | 318 | 1.0 | 8.0 | 0.00 | 0.00 | 0.00 | 28 | 1002.2 |
| 20260505023510 | 82 | 322 | 3.0 | 9.0 | 0.00 | 0.00 | 0.00 | 27 | 1002.2 |
| 20260505023008 | 83 | 349 | 4.0 | 9.0 | 0.00 | 0.00 | 0.00 | 27 | 1002.1 |
| 20260505022508 | 83 | 326 | 3.0 | 7.0 | 0.00 | 0.00 | 0.00 | 26 | 1002.1 |
| 20260505022008 | 84 | 299 | 4.0 | 11.0 | 0.00 | 0.00 | 0.00 | 26 | 1002.1 |
| 20260505021508 | 84 | 306 | 3.0 | 11.0 | 0.00 | 0.00 | 0.00 | 26 | 1002.0 |
| 20260505021008 | 85 | 301 | 3.0 | 9.0 | 0.00 | 0.00 | 0.00 | 25 | 1001.9 |
| 20260505020507 | 86 | 259 | 3.0 | 8.0 | 0.00 | 0.00 | 0.00 | 25 | 1001.9 |
| 20260505020007 | 86 | 284 | 3.0 | 10.0 | 0.00 | 0.00 | 0.00 | 23 | 1001.9 |
| 20260505015507 | 87 | 309 | 1.0 | 10.0 | 0.00 | 0.00 | 0.00 | 24 | 1001.9 |
| 20260505015006 | 87 | 316 | 3.0 | 7.0 | 0.00 | 0.00 | 0.00 | 24 | 1001.9 |
| 20260505014511 | 86 | 326 | 1.0 | 5.0 | 0.00 | 0.00 | 0.00 | 25 | 1001.9 |
| 20260505014005 | 86 | 318 | 2.0 | 4.0 | 0.00 | 0.00 | 0.00 | 25 | 1001.9 |
| 20260505013504 | 86 | 226 | 2.0 | 4.0 | 0.00 | 0.00 | 0.00 | 27 | 1001.9 |
| 20260505013012 | 86 | 262 | 0.0 | 5.0 | 0.00 | 0.00 | 0.00 | 26 | 1001.9 |
| 20260505012507 | 85 | 245 | 1.0 | 5.0 | 0.00 | 0.00 | 0.00 | 26 | 1002.0 |
| 20260505012004 | 85 | 234 | 0.0 | 3.0 | 0.00 | 0.00 | 0.00 | 25 | 1002.0 |
| 20260505011504 | 86 | 248 | 1.0 | 3.0 | 0.00 | 0.00 | 0.00 | 25 | 1002.0 |
| 20260505011002 | 86 | 249 | 1.0 | 4.0 | 0.00 | 0.00 | 0.00 | 24 | 1002.0 |
| 20260505010502 | 86 | 243 | 2.0 | 7.0 | 0.00 | 0.00 | 0.00 | 23 | 1002.1 |
| 20260505010002 | 86 | 191 | 2.0 | 7.0 | 0.00 | 0.00 | 0.00 | 25 | 1002.2 |
| 20260505005503 | 86 | 218 | 1.0 | 3.0 | 0.00 | 0.00 | 0.00 | 26 | 1002.1 |
| 20260505005002 | 87 | 218 | 1.0 | 4.0 | 0.00 | 0.00 | 0.00 | 24 | 1002.2 |
| 20260505004506 | 87 | 235 | 1.0 | 3.0 | 0.00 | 0.00 | 0.00 | 24 | 1002.2 |
| 20260505004001 | 88 | 220 | 1.0 | 6.0 | 0.00 | 0.00 | 0.00 | 22 | 1002.2 |
| 20260505003501 | 88 | 319 | 3.0 | 9.0 | 0.00 | 0.00 | 0.00 | 22 | 1002.2 |
| 20260505003001 | 88 | 232 | 1.0 | 7.0 | 0.00 | 0.00 | 0.00 | 23 | 1002.2 |
| 20260505002501 | 88 | 147 | 1.0 | 7.0 | 0.00 | 0.00 | 0.00 | 21 | 1002.2 |
| 20260505002103 | 89 | 199 | 2.0 | 5.0 | 0.00 | 0.00 | 0.00 | 25 | 1002.2 |
| 20260505001600 | 89 | 325 | 2.0 | 3.0 | 0.00 | 0.00 | 0.00 | 23 | 1002.3 |
| 20260505001100 | 89 | 170 | 1.0 | 8.0 | 0.00 | 0.00 | 0.00 | 23 | 1002.3 |
| 20260505000600 | 89 | 260 | 2.0 | 8.0 | 0.00 | 0.00 | 0.00 | 22 | 1002.3 |
| 20260505000113 | 89 | 315 | 3.0 | 9.0 | 0.00 | 0.00 | 0.00 | 22 | 1002.3 |
| 20260504235559 | 89 | 286 | 3.0 | 9.0 | 0.00 | 0.00 | 0.00 | 22 | 1002.3 |
| 20260504235100 | 89 | 249 | 2.0 | 8.0 | 0.00 | 0.00 | 0.00 | 26 | 1002.2 |
| 20260504234559 | 89 | 258 | 3.0 | 8.0 | 0.00 | 0.00 | 0.00 | 22 | 1002.2 |
| 20260504234058 | 89 | 291 | 2.0 | 7.0 | 0.00 | 0.00 | 0.00 | 22 | 1002.3 |
| 20260504233559 | 89 | 334 | 3.0 | 9.0 | 0.00 | 0.00 | 0.00 | 21 | 1002.3 |
| 20260504233104 | 90 | 169 | 3.0 | 9.0 | 0.00 | 0.00 | 0.00 | 21 | 1002.4 |
| 20260504232557 | 90 | 221 | 3.0 | 6.0 | 0.00 | 0.00 | 0.00 | 24 | 1002.3 |
| 20260504232056 | 90 | 269 | 1.0 | 6.0 | 0.00 | 0.00 | 0.00 | 24 | 1002.4 |
| 20260504231622 | 90 | 254 | 2.0 | 7.0 | 0.00 | 0.00 | 0.00 | 23 | 1002.4 |
| 20260504231055 | 89 | 254 | 2.0 | 6.0 | 0.00 | 0.00 | 0.00 | 23 | 1002.5 |
| 20260504230555 | 89 | 234 | 2.0 | 5.0 | 0.00 | 0.00 | 0.00 | 24 | 1002.5 |
| 20260504230054 | 89 | 342 | 2.0 | 4.0 | 0.00 | 0.00 | 0.00 | 23 | 1002.5 |
| 20260504225556 | 89 | 249 | 1.0 | 4.0 | 0.00 | 0.00 | 0.00 | 25 | 1002.6 |
| 20260504225056 | 89 | 216 | 1.0 | 6.0 | 0.00 | 0.00 | 0.00 | 25 | 1002.6 |
| 20260504224552 | 88 | 234 | 0.0 | 6.0 | 0.00 | 0.00 | 0.00 | 22 | 1002.7 |
| 20260504224052 | 88 | 228 | 4.0 | 8.0 | 0.00 | 0.00 | 0.00 | 23 | 1002.8 |
| 20260504223551 | 89 | 199 | 3.0 | 8.0 | 0.00 | 0.00 | 0.00 | 21 | 1002.8 |
| 20260504223050 | 89 | 144 | 2.0 | 8.0 | 0.00 | 0.00 | 0.00 | 22 | 1002.8 |
| 20260504222550 | 89 | 201 | 1.0 | 6.0 | 0.00 | 0.00 | 0.00 | 23 | 1002.9 |
| 20260504222051 | 89 | 301 | 0.0 | 10.0 | 0.00 | 0.00 | 0.00 | 23 | 1002.9 |
| 20260504221625 | 90 | 52 | 2.0 | 8.0 | 0.00 | 0.00 | 0.00 | 21 | 1003.0 |
| 20260504221048 | 90 | 216 | 1.0 | 6.0 | 0.00 | 0.00 | 0.00 | 21 | 1003.2 |
| 20260504220546 | 89 | 248 | 2.0 | 6.0 | 0.00 | 0.00 | 0.00 | 21 | 1003.3 |
| 20260504220045 | 89 | 197 | 2.0 | 4.0 | 0.00 | 0.00 | 0.00 | 23 | 1003.3 |
| 20260504215546 | 88 | 223 | 2.0 | 5.0 | 0.00 | 0.00 | 0.00 | 25 | 1003.4 |
| 20260504215045 | 89 | 142 | 1.0 | 4.0 | 0.00 | 0.00 | 0.00 | 22 | 1003.4 |
| 20260504214543 | 89 | 187 | 1.0 | 8.0 | 0.00 | 0.00 | 0.00 | 22 | 1003.5 |
| 20260504214042 | 89 | 222 | 2.0 | 8.0 | 0.00 | 0.00 | 0.00 | 22 | 1003.6 |
| 20260504213542 | 89 | 130 | 2.0 | 6.0 | 0.00 | 0.00 | 0.00 | 22 | 1003.7 |
| 20260504213045 | 89 | 172 | 1.0 | 9.0 | 0.00 | 0.00 | 0.00 | 23 | 1003.7 |
| 20260504212541 | 89 | 212 | 4.0 | 9.0 | 0.00 | 0.00 | 0.00 | 22 | 1003.7 |
| 20260504212039 | 89 | 244 | 5.0 | 9.0 | 0.00 | 0.00 | 0.00 | 22 | 1003.7 |
| 20260504211539 | 89 | 337 | 4.0 | 9.0 | 0.00 | 0.00 | 0.00 | 21 | 1003.9 |
| 20260504211038 | 88 | 358 | 1.0 | 4.0 | 0.00 | 0.00 | 0.00 | 21 | 1004.0 |
| 20260504210539 | 89 | 33 | 1.0 | 6.0 | 0.00 | 0.00 | 0.00 | 23 | 1004.1 |
| 20260504210040 | 90 | 163 | 1.0 | 6.0 | 0.00 | 0.00 | 0.00 | 19 | 1004.1 |
| 20260504205535 | 90 | 226 | 1.0 | 4.0 | 0.00 | 0.00 | 0.00 | 22 | 1004.1 |
| 20260504205035 | 90 | 350 | 2.0 | 7.0 | 0.00 | 0.00 | 0.00 | 21 | 1004.2 |
| 20260504204536 | 89 | 222 | 2.0 | 7.0 | 0.00 | 0.00 | 0.00 | 23 | 1004.3 |
| 20260504204034 | 90 | 168 | 3.0 | 6.0 | 0.00 | 0.00 | 0.00 | 21 | 1004.3 |
| 20260504203533 | 90 | 200 | 2.0 | 4.0 | 0.00 | 0.00 | 0.00 | 23 | 1004.3 |
| 20260504203034 | 90 | 239 | 1.0 | 5.0 | 0.00 | 0.00 | 0.00 | 22 | 1004.4 |
| 20260504202531 | 90 | 350 | 2.0 | 6.0 | 0.00 | 0.00 | 0.00 | 22 | 1004.5 |
| 20260504202030 | 90 | 346 | 1.0 | 8.0 | 0.00 | 0.00 | 0.00 | 22 | 1004.5 |
| 20260504201530 | 90 | 304 | 2.0 | 8.0 | 0.00 | 0.00 | 0.00 | 22 | 1004.6 |
| 20260504201029 | 90 | 341 | 1.0 | 6.0 | 0.00 | 0.00 | 0.00 | 22 | 1004.7 |
| 20260504194002 | 86 | 263 | 1.0 | 6.0 | 0.00 | 0.00 | 0.00 | 24 | 1004.8 |
| 20260504193502 | 87 | 108 | 3.0 | 6.0 | 0.00 | 0.00 | 0.00 | 23 | 1005.0 |
| 20260504193100 | 88 | 111 | 2.0 | 9.0 | 0.00 | 0.00 | 0.00 | 21 | 1005.0 |
| 20260504192600 | 88 | 209 | 2.0 | 9.0 | 0.00 | 0.00 | 0.00 | 21 | 1005.0 |
| 20260504192059 | 89 | 16 | 1.0 | 4.0 | 0.00 | 0.00 | 0.00 | 21 | 1005.1 |
| 20260504191622 | 90 | 133 | 0.0 | 4.0 | 0.00 | 0.00 | 0.00 | 23 | 1005.1 |
| 20260504191057 | 89 | 214 | 2.0 | 5.0 | 0.00 | 0.00 | 0.00 | 24 | 1005.2 |
| 20260504190556 | 88 | 243 | 2.0 | 5.0 | 0.00 | 0.00 | 0.00 | 25 | 1005.4 |
| 20260504190058 | 87 | 226 | 2.0 | 5.0 | 0.00 | 0.00 | 0.00 | 25 | 1005.4 |
| 20260504185552 | 86 | 228 | 1.0 | 4.0 | 0.00 | 0.00 | 0.00 | 27 | 1005.4 |
| 20260504185052 | 85 | 357 | 2.0 | 5.0 | 0.00 | 0.00 | 0.00 | 24 | 1005.5 |
| 20260504184601 | 85 | 10 | 1.0 | 6.0 | 0.00 | 0.00 | 0.00 | 25 | 1005.4 |
| 20260504184054 | 86 | 137 | 3.0 | 6.0 | 0.00 | 0.00 | 0.00 | 26 | 1005.6 |
| 20260504183550 | 85 | 179 | 0.0 | 7.0 | 0.00 | 0.00 | 0.00 | 26 | 1005.6 |
| 20260504183049 | 84 | 203 | 3.0 | 7.0 | 0.00 | 0.00 | 0.00 | 30 | 1005.6 |
| 20260504182548 | 84 | 133 | 2.0 | 6.0 | 0.00 | 0.00 | 0.00 | 28 | 1005.6 |
| 20260504182047 | 84 | 148 | 1.0 | 6.0 | 0.00 | 0.00 | 0.00 | 27 | 1005.7 |
| 20260504181547 | 84 | 135 | 1.0 | 6.0 | 0.00 | 0.00 | 0.00 | 28 | 1005.7 |
| 20260504181046 | 84 | 149 | 0.0 | 6.0 | 0.00 | 0.00 | 0.00 | 30 | 1005.7 |
| 20260504180547 | 84 | 166 | 2.0 | 6.0 | 0.00 | 0.00 | 0.00 | 26 | 1005.7 |
| 20260504180043 | 83 | 196 | 1.0 | 4.0 | 0.00 | 0.00 | 0.00 | 30 | 1005.7 |
| 20260504175542 | 82 | 272 | 2.0 | 4.0 | 0.00 | 0.00 | 0.00 | 29 | 1005.8 |
| 20260504175040 | 81 | 212 | 1.0 | 6.0 | 0.00 | 0.00 | 0.00 | 33 | 1005.8 |
| 20260504174539 | 79 | 224 | 2.0 | 6.0 | 0.00 | 0.00 | 0.00 | 31 | 1005.8 |
| 20260504174038 | 78 | 253 | 1.0 | 7.0 | 0.00 | 0.00 | 0.00 | 32 | 1005.7 |
| 20260504173536 | 78 | 213 | 2.0 | 7.0 | 0.00 | 0.00 | 0.00 | 32 | 1005.7 |
| 20260504173034 | 77 | 98 | 1.0 | 4.0 | 0.00 | 0.00 | 0.00 | 32 | 1005.8 |
| 20260504172534 | 76 | 219 | 0.0 | 4.0 | 0.00 | 0.00 | 0.00 | 34 | 1005.8 |
| 20260504172032 | 76 | 247 | 2.0 | 4.0 | 0.00 | 0.00 | 0.00 | 36 | 1005.9 |
| 20260504171532 | 75 | 210 | 1.0 | 4.0 | 0.00 | 0.00 | 0.00 | 34 | 1005.9 |
| 20260504171032 | 74 | 272 | 0.0 | 4.0 | 0.00 | 0.00 | 0.00 | 34 | 1005.9 |
| 20260504170533 | 74 | 203 | 2.0 | 4.0 | 0.00 | 0.00 | 0.00 | 35 | 1005.9 |
| 20260504151018 | 72 | 306 | 2.0 | 8.0 | 0.00 | 0.00 | 0.00 | 39 | 1006.4 |
| 20260504150521 | 70 | 196 | 1.0 | 6.0 | 0.00 | 0.00 | 0.00 | 38 | 1006.4 |
| 20260504141006 | 60 | 280 | 1.0 | 3.0 | 0.00 | 0.00 | 0.00 | 55 | 1006.2 |
| 20260504140503 | 59 | 222 | 0.0 | 1.0 | 0.00 | 0.00 | 0.00 | 54 | 1006.2 |
| 20260504130559 | 56 | 172 | 0.0 | 3.0 | 0.00 | 0.00 | 0.00 | 58 | 1005.8 |
| 20260504110547 | 54 | 199 | 1.0 | 3.0 | 0.00 | 0.00 | 0.00 | 70 | 1005.7 |
| 20260504100541 | 54 | 44 | 0.0 | 2.0 | 0.00 | 0.00 | 0.00 | 70 | 1005.8 |
| 20260504081529 | 56 | 20 | 0.0 | 2.0 | 0.00 | 0.00 | 0.00 | 65 | 1005.8 |
| 20260504081032 | 56 | 22 | 0.0 | 2.0 | 0.00 | 0.00 | 0.00 | 65 | 1005.8 |
| 20260504080528 | 57 | 22 | 0.0 | 1.0 | 0.00 | 0.00 | 0.00 | 64 | 1005.8 |